This demonstration page uses our WeatherBlox Daily Observations layout. Learn more.

Left ArrowRight Arrow

38.20091, -84.87328

Hourly Observations for February 15, 2018

Temp ( °F °C ) Dew Point ( °F °C ) Humidity (%) Winds ( mph kmh ) Pressure ( in mb ) Visibility ( mi km ) Precip ( " mm )
12:53 am 00:53 Cloudy 61 16.1 57 13.9 87 87 SW 10 17 30.00 1016 10 16 0.00 0.03
1:15 am 01:15 Cloudy 61 16.1 57 13.9 87 87 SW 14 22 30.00 1016 10 16 0.00 0.00
1:53 am 01:53 Cloudy 62 16.7 57 13.9 84 84 SW 13 20 29.99 1016 10 16 0.00 0.00
2:15 am 02:15 Cloudy 62 16.7 57 13.9 84 84 SW 16 26 30.00 1016 10 16 0.00 0.00
2:53 am 02:53 Cloudy 62 16.7 57 13.9 84 84 SW 13 20 29.98 1015 10 16 0.00 0.00
3:22 am 03:22 Cloudy 62 16.7 58 14.4 86 86 SW 13 20 29.97 1015 10 16 0.00 0.00
3:45 am 03:45 Cloudy with Mist and Fog 61 16.1 58 14.4 90 90 SW 8 13 29.97 1015 3 4 0.00 0.00
3:53 am 03:53 Cloudy with Light Rain 61 16.1 58 14.4 90 90 SSW 8 13 29.97 1015 4 6 0.00 0.03
4:53 am 04:53 Cloudy 63 17.2 59 15 87 87 SW 12 19 29.96 1014 7 11 0.00 0.03
5:53 am 05:53 Cloudy 63 17.2 60 15.6 90 90 SW 12 19 29.94 1014 10 16 0.00 0.00
6:43 am 06:43 Cloudy 64 17.8 60 15.6 87 87 SW 12 19 29.94 1014 10 16 0.00 0.00
6:53 am 06:53 Cloudy 64 17.8 60 15.6 87 87 SW 13 20 29.93 1014 10 16 0.00 0.00
7:23 am 07:23 Cloudy 64 17.8 60 15.6 87 87 SW 15 24 29.94 1014 10 16 0.00 0.00
7:53 am 07:53 Cloudy 65 18.3 60 15.6 84 84 SW 14 22 29.95 1014 10 16 0.00 0.00
8:53 am 08:53 Cloudy 65 18.3 60 15.6 84 84 SW 13 20 29.95 1014 10 16 0.00 0.00
9:50 am 09:50 Cloudy 66 19 61 16 83 83 SSW 16 26 29.94 1014 10 16 0.00 0.00
9:53 am 09:53 Cloudy 67 19.4 61 16.1 81 81 SSW 15 24 29.92 1013 10 16 0.00 0.00
10:53 am 10:53 Cloudy 67 19.4 61 16.1 81 81 SW 16 26 29.92 1013 10 16 0.00 0.00
11:53 am 11:53 Cloudy 69 20.6 60 15.6 73 73 SW 18 30 29.89 1012 10 16 0.00 0.00
12:53 pm 12:53 Cloudy 68 20 59 15 73 73 SSW 18 30 29.86 1011 10 16 0.00 0.00
1:13 pm 13:13 Cloudy 69 20.6 59 15 70 70 SW 16 26 29.85 1011 10 16 0.00 0.00
1:53 pm 13:53 Cloudy with Light Rain 69 20.6 59 15 70 70 SSW 13 20 29.83 1010 10 16 0.00 0.03
2:53 pm 14:53 Cloudy with Light Rain 70 21.1 59 15 68 68 SW 20 31 29.80 1009 10 16 0.00 0.03
3:53 pm 15:53 Cloudy 71 21.7 59 15 66 66 SW 18 30 29.79 1009 10 16 0.00 0.03
4:53 pm 16:53 Mostly Cloudy 71 21.7 59 15 66 66 SW 13 20 29.78 1008 10 16 0.00 0.00
5:53 pm 17:53 Mostly Cloudy 72 22.2 57 13.9 59 59 SW 18 30 29.77 1008 10 16 0.00 0.00
6:53 pm 18:53 Cloudy 71 21.7 57 13.9 61 61 SW 15 24 29.78 1008 10 16 0.00 0.00
7:53 pm 19:53 Clear 70 21.1 56 13.3 61 61 SW 22 35 29.77 1008 10 16 0.00 0.00
8:53 pm 20:53 Mostly Cloudy 70 21.1 57 13.9 64 64 SW 12 19 29.77 1008 10 16 0.00 0.00
9:53 pm 21:53 Cloudy 69 20.6 57 13.9 66 66 SW 17 28 29.76 1008 10 16 0.00 0.00
10:53 pm 22:53 Cloudy 70 21.1 57 13.9 64 64 SW 24 39 29.77 1008 10 16 0.00 0.00
11:53 pm 23:53 Cloudy 70 21.1 57 13.9 64 64 SW 22 35 29.77 1008 10 16 0.00 0.00

Powered by AerisWeather